FW1683 Weather Reports


Display with metric or nautical units.
time (UTC)temp
F
wind
direction
speed
MPH
gust
MPH
rain 1hr
in
rain 24hr
in
rain mn
in
humidity
%
barometer
mb
20260503032019 65 25 4.0 6.0 0.00 0.00 0.00 87 1014.6
20260503031020 65 48 5.0 8.0 0.00 0.00 0.00 87 1014.7
20260503030028 65 40 5.0 8.0 0.00 0.00 0.00 87 1014.8
20260503025025 65 38 5.0 8.0 0.00 0.00 0.00 84 1015.0
20260503024023 65 39 3.0 5.0 0.00 0.00 0.00 84 1015.2
20260503023039 65 49 4.0 6.0 0.00 0.00 0.00 84 1015.3
20260503022026 65 62 3.0 5.0 0.00 0.00 0.00 83 1015.4
20260503021018 65 74 4.0 6.0 0.00 0.00 0.00 83 1015.4
20260503020024 64 60 3.0 5.0 0.00 0.00 0.00 83 1015.4
20260503015020 65 75 4.0 6.0 0.00 0.00 0.00 85 1015.4
20260503013025 65 68 4.0 7.0 0.00 0.00 0.00 86 1015.7
20260503005021 65 40 5.0 7.0 0.00 0.00 0.00 85 1016.1
20260503004029 65 46 6.0 10.0 0.00 0.00 0.00 85 1016.1
20260503002035 65 49 6.0 9.0 0.00 0.00 0.00 84 1016.5
20260503001027 65 40 6.0 9.0 0.00 0.00 0.00 84 1016.6
20260502235028 65 54 5.0 7.0 0.00 0.00 0.00 83 1016.9
20260502234032 65 63 4.0 7.0 0.00 0.00 0.00 83 1017.2
20260502233010 65 31 4.0 6.0 0.00 0.00 0.00 82 1017.1
20260502232007 66 34 4.0 7.0 0.00 0.00 0.00 83 1017.0
20260502231008 66 45 3.0 5.0 0.00 0.00 0.00 83 1017.1
20260502230009 66 42 4.0 6.0 0.00 0.00 0.00 82 1017.0
20260502224008 66 57 3.0 5.0 0.00 0.00 0.00 81 1017.3
20260502222007 66 89 3.0 5.0 0.00 0.00 0.00 81 1017.1
20260502221008 66 114 4.0 6.0 0.00 0.00 0.00 81 1017.4
20260502220026 66 76 3.0 6.0 0.00 0.00 0.00 81 1017.3
20260502215007 66 61 3.0 4.0 0.00 0.00 0.00 81 1017.3
20260502214008 66 34 3.0 4.0 0.00 0.00 0.00 81 1017.3
20260502213011 66 22 2.0 3.0 0.00 0.00 0.00 81 1017.4
20260502212008 66 55 2.0 4.0 0.00 0.00 0.00 81 1017.4
20260502211007 66 104 2.0 4.0 0.00 0.00 0.00 81 1017.2
20260502210024 66 132 2.0 4.0 0.00 0.00 0.00 80 1017.3
20260502205022 66 118 2.0 4.0 0.00 0.00 0.00 80 1017.4
20260502203012 66 108 3.0 5.0 0.00 0.00 0.00 81 1017.4
20260502202007 66 91 4.0 7.0 0.00 0.00 0.00 81 1017.0
20260502200024 66 101 5.0 9.0 0.00 0.00 0.00 81 1017.2
20260502195007 66 100 5.0 8.0 0.00 0.00 0.00 81 1017.0
20260502193008 66 86 4.0 6.0 0.00 0.00 0.00 81 1017.1
20260502191009 66 104 6.0 9.0 0.00 0.00 0.00 81 1016.7
20260502190009 66 111 7.0 10.0 0.00 0.00 0.00 80 1016.7
20260502185008 66 87 7.0 11.0 0.00 0.00 0.00 80 1016.6
20260502184009 66 96 6.0 10.0 0.00 0.00 0.00 80 1016.7
20260502183011 66 107 7.0 11.0 0.00 0.00 0.00 79 1017.0
20260502182008 67 109 7.0 10.0 0.00 0.00 0.00 79 1017.1
20260502181029 67 107 6.0 10.0 0.00 0.00 0.00 78 1017.2
20260502164009 68 124 7.0 12.0 0.00 0.00 0.00 77 1017.5
20260502163011 69 109 8.0 12.0 0.00 0.00 0.00 76 1017.5
20260502162007 69 116 8.0 12.0 0.00 0.00 0.00 75 1017.5
20260502152007 71 111 7.0 11.0 0.00 0.00 0.00 70 1017.7
20260502151007 70 112 8.0 11.0 0.00 0.00 0.00 69 1017.9
20260502123012 69 108 10.0 16.0 0.00 0.00 0.00 75 1019.3
20260502122007 69 123 9.0 14.0 0.00 0.00 0.00 77 1019.6
20260502121007 69 123 8.0 12.0 0.00 0.00 0.00 77 1019.9
20260502115006 70 108 7.0 12.0 0.00 0.00 0.00 74 1019.7
20260502114009 70 101 8.0 12.0 0.00 0.00 0.00 73 1019.6
20260502113018 70 107 7.0 11.0 0.00 0.00 0.00 71 1019.8
20260502112007 71 97 7.0 11.0 0.00 0.00 0.00 70 1019.9
20260502111008 71 93 6.0 9.0 0.00 0.00 0.00 70 1019.9
20260502110012 71 97 7.0 11.0 0.00 0.00 0.00 70 1020.1
20260502105007 71 105 7.0 11.0 0.00 0.00 0.00 70 1020.2
20260502104009 71 103 7.0 11.0 0.00 0.00 0.00 70 1020.2
20260502103012 72 98 4.0 7.0 0.00 0.00 0.00 68 1020.3
20260502102008 73 73 4.0 7.0 0.00 0.00 0.00 65 1019.1
20260502101010 73 84 4.0 6.0 0.00 0.00 0.00 64 1019.1
20260502091011 71 60 5.0 9.0 0.00 0.00 0.00 69 1020.5
20260502071007 67 40 5.0 8.0 0.00 0.00 0.00 79 1020.6
20260502065007 66 47 6.0 9.0 0.00 0.00 0.00 80 1020.4
20260502064009 65 45 6.0 9.0 0.00 0.00 0.00 82 1020.5
20260502063016 65 42 5.0 7.0 0.00 0.00 0.00 82 1020.8
20260502062008 65 25 3.0 5.0 0.00 0.00 0.00 83 1020.8
20260502060019 65 31 4.0 7.0 0.00 0.00 0.00 85 1020.5
20260502055008 65 36 4.0 7.0 0.00 0.00 0.00 86 1020.4
20260502054009 65 17 4.0 7.0 0.00 0.00 0.00 86 1020.4
20260502053012 65 28 4.0 6.0 0.00 0.00 0.00 87 1020.3
20260502052008 65 47 4.0 6.0 0.00 0.00 0.00 87 1020.3
20260502045007 65 22 3.0 5.0 0.00 0.00 0.00 88 1020.2
20260502044010 65 11 2.0 4.0 0.00 0.00 0.00 88 1020.3
20260502043019 65 3 1.0 2.0 0.00 0.00 0.00 88 1020.3
20260502042012 65 32 2.0 4.0 0.00 0.00 0.00 89 1020.3
20260502041008 65 13 3.0 5.0 0.00 0.00 0.00 89 1020.4
20260502040027 65 353 3.0 5.0 0.00 0.00 0.00 88 1020.5
20260502035007 65 0 2.0 4.0 0.00 0.00 0.00 88 1020.6
20260502034008 65 28 3.0 5.0 0.00 0.00 0.00 88 1020.7